RH
82 82 83 84 82 77 74 72 73 74 74 76 76 75 79 81 75 72 72 73 74 74 71 70 68 68 66
79 78 80 82 86 84 79 77 81 83 81 80 76 80 79 84 84 82 82 79 75 75 76 71 73 73 73
85 82 80 83 85 81 79 82 87 83 82 84 83 80 79 74 81 84 81 80 79 80 80 76 82 82 81
83 86 80 83 86 86 81 84 87 86 80 81 83 87 92 90 86 86 87 87 80 79 82 85 83 81 88
81 82 82 84 84 81 81 90 88 87 88 94 73 82 92 91 94 92 89 80 87 91 89 90 89 94 97
83 81 82 80 81 90 92 98 92 86 99 91 89 97 94 92 100 95 92 91 89 88 88 89 93 92 98
86 81 80 82 83 92 94 100 98 98 100 97 93 91 95 98 98 98 90 88 88 86 87 87 97 99 96
100 90 82 82 82 91 100 100 100 99 100 98 92 97 99 100 98 98 94 92 87 84 90 98 93 99 97
95 96 92 82 86 98 100 100 97 96 94 100 98 100 100 100 100 100 95 91 87 96 98 100 100 100 96
94 99 99 87 89 95 100 100 99 98 100 100 100 100 100 100 100 100 100 100 100 99 100 100 100 98 97
100 98 99 91 98 99 100 100 100 99 100 99 100 99 100 99 100 100 100 100 100 99 100 99 100 100 97
97 100 100 96 100 98 99 100 100 99 100 100 99 100 100 100 99 99 100 100 100 100 99 100 100 100 100
99 100 96 87 98 100 100 100 99 99 100 100 100 100 100 100 99 99 99 100 100 100 100 100 100 100 99
100 99 95 96 99 100 100 100 100 99 100 100 99 100 100 100 100 100 100 99 100 100 100 100 100 100 100
100 100 100 98 100 100 100 100 99 100 100 99 99 100 100 100 100 100 100 100 100 100 100 100 100 100 99
100 100 100 100 100 100 100 100 100 100 100 98 100 100 100 98 100 100 100 99 100 100 99 98 98 96 91
100 100 100 100 100 100 100 100 100 99 99 99 100 100 99 98 97 98 98 98 98 98 98 98 93 87 85
Wind_Speed
21 21 22 22 23 22 21 22 23 25 23 25 25 26 24 26 28 28 28 28 29 30 30 31 32 33 34
21 21 21 21 23 24 24 21 21 24 25 26 27 28 26 21 21 24 24 26 27 28 29 30 32 33 34
20 19 20 19 21 21 19 21 21 24 23 24 25 27 28 26 23 23 24 24 25 26 27 28 29 31 33
19 18 18 18 18 21 18 17 20 23 26 26 22 22 21 18 20 22 22 23 24 24 25 26 27 29 30
17 17 16 15 15 15 15 18 21 21 25 26 20 20 14 16 18 18 20 21 19 18 20 22 23 24 26
16 16 18 18 17 17 14 13 5 13 16 28 22 16 14 15 15 15 15 15 15 15 17 18 19 19 21
22 23 22 18 17 17 15 13 15 21 16 21 21 20 18 19 18 15 15 15 15 15 16 16 15 17 18
32 31 26 23 22 22 20 19 22 24 18 8 21 19 22 21 20 17 15 14 14 14 14 12 14 14 15
31 31 31 28 26 23 17 11 8 8 4 13 14 12 15 19 18 16 15 12 10 9 9 9 8 8 11
28 30 30 28 26 28 22 14 11 6 1 5 5 6 4 11 16 14 11 8 6 5 7 6 5 4 4
26 28 27 25 20 21 26 25 16 14 10 10 6 5 4 3 5 11 10 9 9 8 8 8 6 4 3
23 22 23 22 22 22 21 20 20 23 21 16 8 6 3 2 4 7 9 9 10 11 9 8 7 7 7
21 23 28 26 20 20 18 16 15 14 13 11 13 17 16 7 3 7 6 9 11 13 14 11 11 11 13
22 26 26 20 19 19 19 17 14 13 12 10 11 12 15 17 13 7 10 7 13 13 13 11 11 11 11
24 23 23 21 19 19 18 14 12 5 7 7 6 4 9 7 6 11 12 7 13 15 15 15 10 10 11
23 22 21 21 18 17 18 16 12 11 11 10 7 4 2 5 4 10 12 12 13 11 14 13 9 7 8
22 22 20 18 16 16 16 14 11 11 10 11 11 7 2 2 1 6 9 11 11 9 8 6 8 9 6
Wind_Direction
273 280 284 288 292 291 291 290 291 289 281 276 277 273 275 265 258 256 258 258 260 263 266 268 267 267 265
270 276 278 282 286 290 289 289 289 287 285 284 278 273 266 264 260 256 254 258 261 262 265 269 270 269 267
265 267 278 283 288 290 291 297 294 292 288 291 285 267 263 260 260 256 258 259 258 258 261 267 269 270 268
261 266 272 278 285 285 290 299 303 297 294 293 282 269 265 255 253 254 254 256 260 263 265 267 275 274 274
256 263 264 272 276 280 284 297 300 292 292 295 281 268 271 253 255 253 255 261 265 268 271 271 276 278 276
243 256 263 266 272 276 283 294 301 306 328 310 306 303 253 248 243 248 254 259 264 274 278 275 266 273 272
245 243 262 259 265 275 277 280 277 283 299 294 296 293 268 256 255 257 268 265 270 271 283 277 273 270 274
250 251 252 263 266 268 278 284 284 287 285 258 286 261 253 245 256 259 258 267 271 277 275 276 274 276 279
255 257 252 261 264 270 261 263 284 286 284 246 260 254 240 240 243 246 258 263 267 270 266 266 267 282 293
251 248 246 256 261 255 247 239 249 297 231 291 285 255 264 230 232 233 237 245 249 242 245 237 242 274 321
242 239 240 247 245 241 245 244 231 240 259 309 288 305 264 301 237 227 229 223 226 223 224 238 238 219 156
240 215 223 235 239 249 246 241 243 251 261 280 263 268 284 273 248 225 215 205 198 196 195 167 161 170 151
231 218 230 245 243 246 236 234 242 253 263 266 266 273 255 241 229 211 182 201 186 171 163 165 159 152 140
229 226 235 223 227 237 227 226 234 253 251 273 290 268 259 249 240 218 205 182 181 176 165 150 143 142 138
223 212 211 215 223 229 226 223 219 206 223 254 289 251 230 226 209 212 187 169 175 163 157 132 123 126 129
221 208 201 205 210 218 223 219 223 235 230 240 211 189 161 63 198 178 177 164 164 165 158 140 125 127 130
225 209 205 203 203 204 211 210 218 225 219 219 208 212 195 195 66 163 158 164 157 148 156 156 151 137 131